Belgrade, MT

10:42 AM MST on January 24, 2017 (GMT -0700)
Gallatin

Weather History for KBZN - March, 2014

Change the Weather History Date:

Tuesday, March 11, 2014

  Actual Average Record
Temperature  
Mean Temperature 31 °F 35 °F  
Max Temperature 39 °F 48 °F 65 °F (1983)
Min Temperature 23 °F 22 °F -28 °F (1948)
Degree Days  
Heating Degree Days 34 30  
Month to date heating degree days 383 352  
Since 1 July heating degree days 6398 5932  
Cooling Degree Days 0 0  
Month to date cooling degree days 0 0  
Year to date cooling degree days 0 0  
Moisture  
Dew Point 28 °F    
Average Humidity 78    
Maximum Humidity 96    
Minimum Humidity 59    
Precipitation  
Precipitation 0.07 in 0.03 in 0.85 in (1991)
Month to date precipitation 0.97 0.26  
Year to date precipitation 1.92 1.17  
Snow  
Snow 0.10 in 0.20 in 7.60 in (1991)
Month to date snowfall 3.1 2.5  
Since 1 July snowfall 28.1 24.8  
Snow Depth 1.00 in    
Sea Level Pressure  
Sea Level Pressure 30.20 in    
Wind  
Wind Speed 7 mph (WNW)    
Max Wind Speed 17 mph    
Max Gust Speed 21 mph    
Visibility 6 miles    
Events Snow    
T = Trace of Precipitation, MM = Missing Value Source: NWS Daily Summary

Daily Weather History Graph

Daily Weather History Graph

Search for Another Location

Airport or City:

Trip Planner

Search our weather history database for the weather conditions in past years. The results will help you decide how hot, cold, wet, or windy it might be!

Date:

Astronomy

Mar. 11, 2014 Rise Set
Actual Time 7:44 AM MDT 7:25 PM MDT
Civil Twilight 7:15 AM MDT 7:54 PM MDT
Nautical Twilight 6:40 AM MDT 8:29 PM MDT
Astronomical Twilight 6:05 AM MDT 9:04 PM MDT
Moon 2:54 PM MDT (3/11) 4:51 AM MDT (3/11)
Length of Visible Light 12h 39m
Length of Day
11h 40m
Waxing Gibbous, 78% of the Moon is Illuminated
Mar 11
Waxing Gibbous
Mar 16
Full
Mar 23
Last Quarter
Mar 30
New
Apr 7
First Quarter

Hourly Weather History & Observations

Time (MDT) Temp. Windchill Dew Point Humidity Pressure Visibility Wind Dir Wind Speed Gust Speed Precip Events Conditions
12:05 AM 33.1 °F 30.0 °F 32.0 °F 96% 29.91 in 6.0 mi WNW 3.5 mph - 0.00 in   Overcast
12:37 AM 33.1 °F - 32.0 °F 96% 29.92 in 4.0 mi Calm Calm - 0.01 in   Overcast
12:56 AM 33.1 °F 30.0 °F 32.0 °F 96% 29.98 in 5.0 mi West 3.5 mph - 0.01 in   Overcast
1:04 AM 33.1 °F 28.7 °F 32.0 °F 96% 29.93 in 5.0 mi West 4.6 mph - 0.00 in   Overcast
1:56 AM 33.1 °F 24.9 °F 32.0 °F 96% 30.01 in 4.0 mi West 10.4 mph - 0.01 in Snow Light Snow
2:07 AM 33.1 °F 24.4 °F 32.0 °F 96% 29.96 in 2.5 mi WNW 11.5 mph - 0.00 in Snow Light Snow
2:16 AM 33.1 °F 23.9 °F 30.9 °F 92% 29.96 in 1.2 mi WNW 12.7 mph - 0.01 in Snow Light Snow
2:26 AM 33.1 °F 24.4 °F 30.9 °F 92% 29.97 in 1.5 mi WNW 11.5 mph - 0.01 in Snow Light Snow
2:30 AM 33.1 °F 24.4 °F 30.9 °F 92% 29.97 in 1.2 mi WNW 11.5 mph - 0.01 in Snow Light Snow
2:49 AM 32.0 °F 23.0 °F 30.9 °F 96% 29.98 in 2.0 mi WNW 11.5 mph - 0.01 in Snow Light Snow
2:56 AM 32.0 °F 24.2 °F 30.9 °F 96% 30.06 in 2.5 mi WNW 9.2 mph - 0.01 in Snow Light Snow
3:07 AM 32.0 °F 23.6 °F 30.9 °F 96% 29.99 in 4.0 mi WNW 10.4 mph - 0.00 in Snow Light Snow
3:56 AM 32.0 °F 24.2 °F 30.9 °F 96% 30.09 in 10.0 mi WNW 9.2 mph - 0.00 in   Overcast
4:04 AM 32.0 °F 23.6 °F 30.9 °F 96% 30.02 in 10.0 mi NW 10.4 mph - N/A   Overcast
4:18 AM 33.1 °F 24.4 °F 30.0 °F 89% 30.02 in 1.8 mi NNW 11.5 mph - 0.01 in Snow Light Snow
4:34 AM 32.0 °F 23.0 °F 30.9 °F 96% 30.04 in 1.0 mi NNW 11.5 mph - 0.01 in Snow Light Snow
4:41 AM 32.0 °F 21.2 °F 30.9 °F 96% 30.04 in 1.2 mi North 16.1 mph 21.9 mph 0.02 in Snow Light Snow
4:56 AM 32.0 °F 22.1 °F 30.0 °F 92% 30.14 in 1.0 mi North 13.8 mph - 0.02 in Snow Light Snow
5:06 AM 32.0 °F 21.2 °F 30.0 °F 92% 30.06 in 0.8 mi North 16.1 mph - 0.00 in Snow Light Snow
5:26 AM 30.9 °F 20.7 °F 30.0 °F 96% 30.08 in 1.0 mi North 13.8 mph - 0.01 in Snow Light Snow
5:36 AM 30.9 °F 22.8 °F 30.0 °F 96% 30.09 in 0.8 mi North 9.2 mph - 0.01 in Snow Light Snow
5:52 AM 30.2 °F 26.7 °F 30.2 °F 100% 30.11 in 0.8 mi NW 3.5 mph - 0.02 in Snow Light Snow
5:56 AM 32.0 °F 27.5 °F 30.0 °F 92% 30.20 in 1.2 mi NNW 4.6 mph - 0.03 in Snow Light Snow
5:59 AM 32.0 °F 24.8 °F 30.0 °F 92% 30.12 in 2.0 mi NNW 8.1 mph - 0.00 in Snow Light Snow
6:07 AM 32.0 °F 26.4 °F 28.9 °F 88% 30.13 in 9.0 mi North 5.8 mph - 0.00 in   Overcast
6:16 AM 30.9 °F 22.8 °F 27.0 °F 85% 30.13 in 10.0 mi NNW 9.2 mph - 0.00 in   Overcast
6:56 AM 30.9 °F 24.3 °F 27.0 °F 85% 30.27 in 10.0 mi North 6.9 mph - 0.00 in   Overcast
7:56 AM 30.0 °F 22.4 °F 27.0 °F 88% 30.32 in 10.0 mi South 8.1 mph - N/A   Overcast
8:33 AM 30.9 °F 22.2 °F 28.0 °F 89% 30.24 in 2.5 mi SW 10.4 mph - 0.00 in Snow Light Snow
8:44 AM 30.9 °F 22.8 °F 28.0 °F 89% 30.25 in 1.5 mi SW 9.2 mph - 0.00 in Snow Light Snow
8:56 AM 30.0 °F 21.1 °F 28.0 °F 92% 30.36 in 2.0 mi SSW 10.4 mph - 0.00 in Snow Light Snow
9:04 AM 30.0 °F 21.1 °F 28.0 °F 92% 30.26 in 5.0 mi SW 10.4 mph - 0.00 in Snow Light Snow
9:56 AM 30.9 °F 23.5 °F 27.0 °F 85% 30.40 in 5.0 mi West 8.1 mph - 0.00 in   Mostly Cloudy
10:56 AM 32.0 °F 28.7 °F 27.0 °F 82% 30.44 in 10.0 mi SW 3.5 mph - N/A   Partly Cloudy
11:56 AM 35.1 °F 32.2 °F 28.0 °F 76% 30.46 in 10.0 mi Variable 3.5 mph - N/A   Overcast
12:56 PM 35.1 °F 29.3 °F 24.1 °F 64% 30.47 in 10.0 mi SSW 6.9 mph - N/A   Partly Cloudy
1:56 PM 36.0 °F 29.6 °F 26.1 °F 67% 30.46 in 10.0 mi South 8.1 mph - N/A   Clear
2:56 PM 37.0 °F 32.4 °F 24.1 °F 59% 30.46 in 10.0 mi SE 5.8 mph - N/A   Partly Cloudy
3:56 PM 37.9 °F 32.1 °F 28.0 °F 68% 30.43 in 10.0 mi ESE 8.1 mph - N/A   Clear
4:56 PM 37.9 °F 32.1 °F 25.0 °F 60% 30.42 in 10.0 mi SE 8.1 mph - N/A   Clear
5:56 PM 37.9 °F 32.7 °F 24.1 °F 57% 30.43 in 10.0 mi ESE 6.9 mph - N/A   Clear
6:56 PM 37.0 °F 34.5 °F 24.1 °F 59% 30.43 in 10.0 mi ESE 3.5 mph - N/A   Clear
7:56 PM 28.9 °F 21.9 °F 23.0 °F 78% 30.45 in 10.0 mi SSE 6.9 mph - N/A   Clear
8:56 PM 28.0 °F 21.7 °F 21.9 °F 78% 30.46 in 10.0 mi South 5.8 mph - N/A   Clear
9:56 PM 28.0 °F 20.0 °F 21.9 °F 78% 30.46 in 10.0 mi SSE 8.1 mph - N/A   Clear
10:56 PM 26.1 °F - 21.0 °F 81% 30.46 in 10.0 mi Calm Calm - N/A   Clear
11:56 PM 26.1 °F 19.4 °F 21.0 °F 81% 30.46 in 10.0 mi South 5.8 mph - N/A   Clear